User: anonymous   Login
Location: Bouillancy
(49.1149°N, 2.9308°E)
Time: 12:39:43
(UTC+00:00)
Language:

MetOp-A - Orbit

View from above orbital plane
View from above orbital plane
View from above satellite
View from above satellite

Ground track
Ground track

The orbit data is extracted from the following two-line orbital elements,

1 29499U 06044A   21207.18895094  .00000011  00000-0  24123-4 0  9991
2 29499  98.4693 244.9069 0001470 115.8498 332.9354 14.21505260766246
Epoch (UTC): 26 July 2021 04:32:05
Eccentricity: 0.0001470
inclination: 98.4693°
perigee height: 819 km
apogee height: 821 km
right ascension of ascending node: 244.9069°
argument of perigee: 115.8498°
revolutions per day: 14.21505260
mean anomaly at epoch: 332.9354°
orbit number at epoch: 76624

The dashed part of the orbit path shows where the satellite is in the earth's shadow,  

DLR